AAY227 KCAK-KSAV

Flight info

Callsign AAY227
Flight time N/A
Altitude 38000
Route DCT CTW DCT JPU DCT HVQ J85 SPA/N0435F370 DCT CAE/N0438F380 DCT CANTR DCT PLZZZ DCT
Aircraft A319/M-SDE3FGHIRWY/LB1

Departure

Time 2026-04-15 23:43
Airport Akron Canton Regional Airport (KCAK)

Arrival

Time N/A
Airport Savannah Hilton Head International Airport (KSAV)
Time Latitude Longitude Altitude Speed Heading
2026-04-15 23:08 40.91409 -81.43750 1223 ft 0 kts 93°
2026-04-15 23:36 40.91402 -81.43869 1223 ft 0 kts 68°
2026-04-15 23:39 40.91401 -81.43865 1223 ft 1 kts 101°
2026-04-15 23:39 40.91354 -81.43848 1223 ft 12 kts 188°
2026-04-15 23:39 40.91245 -81.43908 1223 ft 19 kts 204°
2026-04-15 23:40 40.91120 -81.43976 1222 ft 20 kts 193°
2026-04-15 23:40 40.90986 -81.43979 1222 ft 19 kts 178°
2026-04-15 23:40 40.90853 -81.43985 1222 ft 16 kts 182°
2026-04-15 23:40 40.90756 -81.43993 1221 ft 12 kts 196°
2026-04-15 23:41 40.90735 -81.44024 1220 ft 0 kts 253°
2026-04-15 23:41 40.90733 -81.44076 1215 ft 14 kts 271°
2026-04-15 23:42 40.90766 -81.44131 1214 ft 7 kts 347°
2026-04-15 23:42 40.90935 -81.44125 1216 ft 58 kts
2026-04-15 23:42 40.91574 -81.44087 1223 ft 123 kts
2026-04-15 23:42 40.92586 -81.44023 1386 ft 159 kts 357°
2026-04-15 23:43 40.93354 -81.43986 1701 ft 168 kts 358°
2026-04-15 23:43 40.94590 -81.43974 2045 ft 192 kts 355°
2026-04-15 23:43 40.95968 -81.43924 2486 ft 202 kts 357°
2026-04-15 23:43 40.97365 -81.43820 3076 ft 210 kts 355°
2026-04-15 23:44 40.98960 -81.43713 3042 ft 251 kts 356°
2026-04-15 23:44 41.00819 -81.43628 3033 ft 279 kts 355°
2026-04-15 23:44 41.02803 -81.43545 3031 ft 291 kts 356°
2026-04-15 23:44 41.04810 -81.43446 3024 ft 290 kts 357°
2026-04-15 23:45 41.06819 -81.43333 3024 ft 288 kts 357°
2026-04-15 23:45 41.08787 -81.42695 3025 ft 297 kts 23°
2026-04-15 23:45 41.10609 -81.41309 3525 ft 305 kts 35°
2026-04-15 23:45 41.12007 -81.39181 4567 ft 310 kts 62°
2026-04-15 23:46 41.12695 -81.36468 5555 ft 313 kts 79°
2026-04-15 23:46 41.13101 -81.33613 6523 ft 317 kts 81°
2026-04-15 23:46 41.13477 -81.30706 7406 ft 322 kts 81°
2026-04-15 23:46 41.13837 -81.27740 8211 ft 330 kts 81°
2026-04-15 23:47 41.14198 -81.24711 9151 ft 337 kts 81°
2026-04-15 23:47 41.14554 -81.21624 10029 ft 340 kts 81°
2026-04-15 23:47 41.14924 -81.18415 10441 ft 365 kts 81°
2026-04-15 23:47 41.15314 -81.15003 10949 ft 380 kts 81°
2026-04-15 23:48 41.15652 -81.11504 11602 ft 384 kts 89°
2026-04-15 23:48 41.15293 -81.08036 12277 ft 384 kts 112°
2026-04-15 23:48 41.14123 -81.04866 13079 ft 379 kts 132°
2026-04-15 23:48 41.12343 -81.02380 13857 ft 366 kts 153°
2026-04-15 23:49 41.10165 -81.00770 14539 ft 354 kts 168°
2026-04-15 23:49 41.07809 -81.00101 15267 ft 341 kts 186°
2026-04-15 23:49 41.05493 -81.00353 15975 ft 329 kts 201°
2026-04-15 23:49 41.03353 -81.01356 16616 ft 328 kts 211°
2026-04-15 23:50 41.01248 -81.02593 17372 ft 334 kts 212°
2026-04-15 23:50 40.99100 -81.03860 18163 ft 339 kts 211°
2026-04-15 23:50 40.96923 -81.05135 18745 ft 344 kts 211°
2026-04-15 23:51 40.92501 -81.07704 19937 ft 350 kts 210°
2026-04-15 23:51 40.90248 -81.08997 20537 ft 355 kts 209°
2026-04-15 23:51 40.87970 -81.10297 21145 ft 358 kts 209°
2026-04-15 23:51 40.85679 -81.11613 21733 ft 361 kts 209°
2026-04-15 23:52 40.83372 -81.12952 22307 ft 364 kts 209°
2026-04-15 23:52 40.81045 -81.14310 22871 ft 365 kts 209°
2026-04-15 23:52 40.78694 -81.15676 23402 ft 371 kts 208°
2026-04-15 23:52 40.76051 -81.17211 23905 ft 375 kts 208°
2026-04-15 23:53 40.73910 -81.18450 24309 ft 378 kts 208°
2026-04-15 23:53 40.71496 -81.19841 24771 ft 380 kts 208°
2026-04-15 23:53 40.69065 -81.21241 25219 ft 381 kts 208°
2026-04-15 23:53 40.66624 -81.22647 25646 ft 384 kts 208°
2026-04-15 23:54 40.64163 -81.24066 26085 ft 387 kts 208°
2026-04-15 23:54 40.61693 -81.25485 26528 ft 389 kts 208°
2026-04-15 23:54 40.59232 -81.26900 26949 ft 391 kts 208°
2026-04-15 23:54 40.56735 -81.28334 27351 ft 393 kts 208°
2026-04-15 23:55 40.54223 -81.29773 27782 ft 395 kts 208°
2026-04-15 23:55 40.51703 -81.31219 28245 ft 396 kts 208°
2026-04-15 23:55 40.49170 -81.32675 28691 ft 398 kts 209°
2026-04-15 23:55 40.46626 -81.34132 29111 ft 399 kts 208°
2026-04-15 23:56 40.44074 -81.35593 29496 ft 402 kts 209°
2026-04-15 23:56 40.41508 -81.37060 29886 ft 404 kts 209°
2026-04-15 23:56 40.38920 -81.38537 30246 ft 406 kts 209°
2026-04-15 23:56 40.36322 -81.40013 30575 ft 408 kts 209°
2026-04-15 23:57 40.33712 -81.41493 30881 ft 410 kts 209°
2026-04-15 23:57 40.31089 -81.42986 31175 ft 412 kts 209°
2026-04-15 23:57 40.28459 -81.44493 31496 ft 414 kts 210°
2026-04-15 23:57 40.25797 -81.45949 31845 ft 417 kts 205°
2026-04-15 23:58 40.22960 -81.46911 32277 ft 425 kts 196°
2026-04-15 23:58 40.19982 -81.47213 32709 ft 434 kts 187°
2026-04-15 23:58 40.16952 -81.46892 33127 ft 440 kts 182°
2026-04-15 23:58 40.13904 -81.46477 33536 ft 439 kts 183°
2026-04-15 23:59 40.10870 -81.46071 33908 ft 440 kts 183°
2026-04-15 23:59 40.07829 -81.45672 34242 ft 439 kts 184°
2026-04-15 23:59 40.04781 -81.45277 34602 ft 439 kts 184°
2026-04-15 23:59 40.01746 -81.44886 34941 ft 438 kts 184°
2026-04-16 00:00 39.98727 -81.44497 35255 ft 436 kts 184°
2026-04-16 00:00 39.95704 -81.44104 35568 ft 436 kts 184°
2026-04-16 00:00 39.92684 -81.43714 35873 ft 435 kts 184°
2026-04-16 00:00 39.89675 -81.43326 36191 ft 434 kts 184°
2026-04-16 00:01 39.86671 -81.42943 36508 ft 433 kts 184°
2026-04-16 00:01 39.83675 -81.42560 36799 ft 433 kts 184°
2026-04-16 00:01 39.80677 -81.42174 37102 ft 433 kts 184°
2026-04-16 00:01 39.77682 -81.41783 37414 ft 432 kts 185°
2026-04-16 00:02 39.74690 -81.41394 37710 ft 432 kts 185°
2026-04-16 00:02 39.71741 -81.41013 37928 ft 430 kts 185°
2026-04-16 00:02 39.65752 -81.40245 37978 ft 429 kts 185°
2026-04-16 00:03 39.59850 -81.39481 37981 ft 429 kts 185°
2026-04-16 00:03 39.53916 -81.38723 37981 ft 429 kts 185°
2026-04-16 00:04 39.47974 -81.37963 37973 ft 429 kts 185°
2026-04-16 00:04 39.42172 -81.38311 38000 ft 409 kts 201°
2026-04-16 00:05 39.36575 -81.39655 38023 ft 410 kts 200°
2026-04-16 00:05 39.30956 -81.40948 38028 ft 410 kts 200°
2026-04-16 00:06 39.25338 -81.42279 38000 ft 410 kts 200°
2026-04-16 00:06 39.19741 -81.43608 38006 ft 409 kts 200°
2026-04-16 00:07 39.14127 -81.44924 38013 ft 410 kts 200°
2026-04-16 00:07 39.08559 -81.46237 38013 ft 409 kts 200°
2026-04-16 00:08 39.02964 -81.47562 37988 ft 409 kts 200°
2026-04-16 00:08 38.97384 -81.48884 37986 ft 408 kts 199°
2026-04-16 00:09 38.91791 -81.50196 37991 ft 408 kts 199°
2026-04-16 00:09 38.86216 -81.51503 37998 ft 406 kts 199°
2026-04-16 00:10 38.80643 -81.52805 37964 ft 407 kts 199°
2026-04-16 00:10 38.75055 -81.54121 37993 ft 409 kts 199°
2026-04-16 00:11 38.69458 -81.55433 38006 ft 409 kts 199°
2026-04-16 00:11 38.63836 -81.56747 38027 ft 414 kts 199°
2026-04-16 00:12 38.58084 -81.58091 38011 ft 426 kts 199°
2026-04-16 00:12 38.52183 -81.59477 38041 ft 436 kts 198°
2026-04-16 00:13 38.46197 -81.60850 38039 ft 437 kts 198°
2026-04-16 00:13 38.40210 -81.62215 38042 ft 438 kts 198°
2026-04-16 00:14 38.34210 -81.63599 38019 ft 438 kts 198°
2026-04-16 00:14 38.28246 -81.64983 38042 ft 440 kts 198°
2026-04-16 00:15 38.22216 -81.66382 38060 ft 440 kts 198°
2026-04-16 00:15 38.16196 -81.67762 38049 ft 439 kts 198°
2026-04-16 00:16 38.10187 -81.69138 38035 ft 437 kts 198°
2026-04-16 00:16 38.04202 -81.70514 38028 ft 437 kts 198°
2026-04-16 00:17 37.98210 -81.71889 38037 ft 438 kts 198°
2026-04-16 00:17 37.92220 -81.73263 38029 ft 438 kts 198°
2026-04-16 00:18 37.86233 -81.74651 37999 ft 437 kts 198°
2026-04-16 00:18 37.80210 -81.76027 38050 ft 442 kts 198°
2026-04-16 00:19 37.74103 -81.77406 38042 ft 445 kts 198°
2026-04-16 00:19 37.68012 -81.78777 38053 ft 445 kts 198°
2026-04-16 00:20 37.61950 -81.80136 38041 ft 441 kts 198°
2026-04-16 00:20 37.55774 -81.80868 38044 ft 447 kts 191°
2026-04-16 00:21 37.49536 -81.81163 38067 ft 450 kts 190°
2026-04-16 00:21 37.43299 -81.81454 38062 ft 448 kts 190°
2026-04-16 00:22 37.37051 -81.81754 38033 ft 450 kts 190°
2026-04-16 00:22 37.30788 -81.82079 38038 ft 452 kts 189°
2026-04-16 00:23 37.24540 -81.82386 38137 ft 453 kts 189°
2026-04-16 00:23 37.18247 -81.82675 38136 ft 452 kts 189°
2026-04-16 00:24 37.11965 -81.82971 38161 ft 453 kts 189°
2026-04-16 00:24 37.05655 -81.83287 38177 ft 453 kts 189°
2026-04-16 00:25 36.99358 -81.83596 38171 ft 454 kts 189°
2026-04-16 00:25 36.93043 -81.83886 38136 ft 454 kts 189°
2026-04-16 00:26 36.86708 -81.84183 38110 ft 458 kts 189°
2026-04-16 00:26 36.80352 -81.84486 38104 ft 457 kts 188°
2026-04-16 00:27 36.74038 -81.84812 38105 ft 453 kts 189°
2026-04-16 00:27 36.67724 -81.85101 38116 ft 453 kts 188°
2026-04-16 00:28 36.61372 -81.85370 38119 ft 458 kts 189°
2026-04-16 00:28 36.56098 -81.85615 38068 ft 455 kts 189°
2026-04-16 00:29 36.49762 -81.85913 38073 ft 456 kts 189°
2026-04-16 00:29 36.43407 -81.86239 38057 ft 459 kts 189°
2026-04-16 00:30 36.37002 -81.86550 38067 ft 463 kts 189°
2026-04-16 00:30 36.30569 -81.86836 38076 ft 463 kts 188°
2026-04-16 00:31 36.24119 -81.87147 38107 ft 464 kts 189°
2026-04-16 00:31 36.17678 -81.87449 38090 ft 464 kts 188°
2026-04-16 00:32 36.11220 -81.87738 38084 ft 465 kts 188°
2026-04-16 00:32 36.04767 -81.88042 38089 ft 465 kts 188°
2026-04-16 00:33 35.98295 -81.88350 38096 ft 466 kts 188°